Regional Weather Roundup
Issued by NWS

Home | Current Version | Previous Version | Text Only | Print | Product List | Glossary On
Versions: 1 2 3 4 5 6 7 8 9 10 11 12 13 14 15 16 17 18 19 20 21 22 23 24 25 26 27 28 29 30 31 32 33 34 35 36 37 38 39 40 41 42 43 44 45 46 47 48 49 50
000
ASUS43 KLMK 051510
RWRKY
KENTUCKY REGIONAL WEATHER ROUNDUP
NATIONAL WEATHER SERVICE LOUISVILLE KY
1000 AM EST THU MAR 05 2015

NOTE "FAIR" INDICATES FEW OR NO CLOUDS BELOW 12,000 FEET
WITH NO SIGNIFICANT WEATHER AND/OR OBSTRUCTIONS TO VISIBILITY.

KYZ001>023-026-027-061>063-070>075-051600-
WESTERN AND SOUTH CENTRAL KENTUCKY

CITY           SKY/WX    TMP DP  RH WIND       PRES   REMARKS
PADUCAH        CLOUDY    21   8  57 N13       30.44R WCI   9
HENDERSON      CLOUDY    19   7  58 N7        30.44R WCI  10
OWENSBORO      CLOUDY    20   9  62 N6        30.41R WCI  12
HOPKINSVILLE   FLURRIES  18  12  79 N10       30.39R WCI   6
BOWLING GREEN  LGT SNOW  21  15  78 N10G17    30.35R WCI  10
GLASGOW        LGT SNOW  21  18  86 N14G21    30.33R WCI   8
$$

KYZ024-025-028>034-038-045-046-053-051600-
NORTH CENTRAL KENTUCKY

CITY           SKY/WX    TMP DP  RH WIND       PRES   REMARKS
LOUISVILLE/SDF CLOUDY    21  14  74 N7        30.37R WCI  12
LOUISVILLE/LOU CLOUDY    21  13  71 N6        30.38R WCI  13
FORT KNOX      CLOUDY    19  13  78 N10       30.33R HAZE    WCI   7
$$

KYZ035>037-039>044-047>052-055>060-089>105-051600-
NORTHEAST KENTUCKY

CITY           SKY/WX    TMP DP  RH WIND       PRES   REMARKS
LEXINGTON      CLOUDY    17  14  88 N9        30.31R FOG     WCI   6
COVINGTON      CLOUDY    20   9  62 N12       30.31F WCI   8
FRANKFORT      LGT SNOW  18  14  84 N8        30.33R FOG     WCI   8
$$

KYZ054-064>069-076>088-106>120-051600-
SOUTHEAST KENTUCKY

CITY           SKY/WX    TMP DP  RH WIND       PRES   REMARKS
JACKSON        SNOW      20  17  88 NE3       30.22R VSB 1/4
LONDON         CLOUDY    22  16  78 N8        30.23R HAZE    WCI  12
SOMERSET       LGT SNOW  19  18  93 N7        30.30R WCI  10
MIDDLESBORO    LGT SNOW  29  24  83 N8        30.18R WCI  21
MONTICELLO     LGT SNOW  23  19  86 CALM      30.29R FOG
$$




USA.gov is the U.S. government's official web portal to all federal, state and local government web resources and services.